Location: Adams
(39.9979°N, 79.0290°W)
Time: 08:56:00
(UTC+00:00)

X-37B - Visible Passes

Search period start: 18 October 2021 00:00
Search period end: 28 October 2021 00:00
Orbit: 385 x 389 km, 45.0° (Epoch: 13 October)

Date Brightness Start Highest point End Pass type
(mag) Time Alt. Az. Time Alt. Az. Time Alt. Az.
18 Oct 2.0 00:18:55 10° WNW 00:21:30 31° NNW 00:21:30 31° NNW visible
18 Oct 1.6 23:20:19 10° W 23:23:20 39° NNW 23:25:43 14° NE visible
19 Oct 3.8 00:57:28 10° WNW 00:58:00 13° NW 00:58:00 13° NW visible
19 Oct 1.8 23:59:00 10° WNW 00:01:53 31° N 00:02:12 30° NNE visible
20 Oct 1.8 23:00:27 10° WNW 23:03:22 32° N 23:06:16 10° ENE visible
21 Oct 3.1 00:37:24 10° WNW 00:38:40 20° NW 00:38:40 20° NW visible
21 Oct 1.7 23:39:00 10° WNW 23:41:55 33° N 23:42:53 27° NE visible
23 Oct 1.9 00:17:16 10° WNW 00:19:24 36° NW 00:19:24 36° NW visible
23 Oct 1.3 23:18:55 10° WNW 23:21:57 40° NNE 23:23:42 20° ENE visible
24 Oct 4.0 00:55:34 10° WNW 00:55:59 13° WNW 00:55:59 13° WNW visible
24 Oct 0.4 23:57:08 10° WNW 00:00:20 90° SSW 00:00:21 88° ESE visible
25 Oct 0.8 22:58:47 10° WNW 23:01:56 56° NNE 23:04:49 12° E visible
26 Oct 3.2 00:35:41 10° W 00:37:08 20° WSW 00:37:08 20° WSW visible
26 Oct 1.3 23:37:05 10° WNW 23:40:10 49° SSW 23:41:43 25° SE visible
